This is the latest recevied weather packets stored in our database for station/object OE5HCE. If no packets are shown the sender has not sent any weather packets the latest 10 day(s).
| Time | Temp. | Humidity | Pressure | Rain* | Wind** | Luminosity | Snow |
|---|---|---|---|---|---|---|---|
| 1787485548 | 23.33° C | 49% | 1022.4 hPa | 0 mm | - | 722 W/m² | - |
| 1787484639 | 22.78° C | 50% | 1022.5 hPa | 0 mm | - | 722 W/m² | - |
| 1787483744 | 22.78° C | 51% | 1022.5 hPa | 0 mm | - | 633 W/m² | - |
| 1787482835 | 22.78° C | 50% | 1022.7 hPa | 0 mm | - | 719 W/m² | - |
| 1787481934 | 22.22° C | 55% | 1022.8 hPa | 0 mm | - | 722 W/m² | - |
| 1787481028 | 21.67° C | 56% | 1023 hPa | 0 mm | - | 707 W/m² | - |
| 1787480125 | 21.11° C | 59% | 1023.2 hPa | 0 mm | - | 696 W/m² | - |
| 1787479226 | 21.11° C | 57% | 1023.3 hPa | 0 mm | - | 687 W/m² | - |
| 1787478320 | 20.56° C | 57% | 1023.4 hPa | 0 mm | - | 693 W/m² | - |
| 1787477430 | 20° C | 60% | 1023.4 hPa | 0 mm | - | 656 W/m² | - |
| 1787476512 | 19.44° C | 63% | 1023.5 hPa | 0 mm | - | 603 W/m² | - |
| 1787475608 | 18.89° C | 66% | 1023.6 hPa | 0 mm | - | 615 W/m² | - |
| 1787474706 | 18.89° C | 67% | 1023.7 hPa | 0 mm | - | 496 W/m² | - |
| 1787473861 | 18.33° C | 70% | 1023.6 hPa | 0 mm | - | 51 W/m² | - |
| 1787472960 | 17.22° C | 74% | 1023.6 hPa | 0 mm | - | 44 W/m² | - |
| 1787472054 | 16.67° C | 76% | 1023.6 hPa | 0 mm | - | 42 W/m² | - |
| 1787471151 | 16.11° C | 75% | 1023.6 hPa | 0 mm | - | 42 W/m² | - |
| 1787470247 | 16.11° C | 74% | 1023.7 hPa | 0 mm | - | 42 W/m² | - |
| 1787469358 | 15.56° C | 72% | 1023.8 hPa | 0 mm | - | 169 W/m² | - |
| 1787468442 | 15° C | 69% | 1023.8 hPa | 0 mm | - | 348 W/m² | - |
| 1787467537 | 14.44° C | 62% | 1023.7 hPa | 0 mm | - | 318 W/m² | - |
| 1787466633 | 13.89° C | 57% | 1023.8 hPa | 0 mm | - | 279 W/m² | - |
| 1787465735 | 13.33° C | 49% | 1023.8 hPa | 0 mm | - | 251 W/m² | - |
| 1787464827 | 12.78° C | 46% | 1023.7 hPa | 0 mm | - | 221 W/m² | - |
| 1787463938 | 12.78° C | 43% | 1023.7 hPa | 0 mm | - | 171 W/m² | - |
* Rain latest hour (hover to see other rain measurements)
** Current wind speed in m/s (hover to see current wind gust speed)